Weather History for KCCU - March, 2014

Change the Weather History Date:

Sunday, March 30, 2014

  Actual Average (KLXV) Record (KLXV)
Temperature  
Mean Temperature 27 °F -  
Max Temperature 35 °F 40 °F 53 °F (1978)
Min Temperature 19 °F 14 °F -11 °F (1987)
Degree Days  
Heating Degree Days 38 38  
Month to date heating degree days 1235  
Since 1 July heating degree days 8945  
Cooling Degree Days 0 0  
Month to date cooling degree days 0  
Year to date cooling degree days 0  
Moisture  
Dew Point 13 °F    
Average Humidity 50    
Maximum Humidity 80    
Minimum Humidity 32    
Precipitation  
Precipitation 0.01 in 0.04 in 0.23 in (1993)
Month to date precipitation 0.91  
Year to date precipitation 2.23  
Sea Level Pressure  
Sea Level Pressure 29.95 in    
Wind  
Wind Speed 20 mph (SSW)    
Max Wind Speed 36 mph    
Max Gust Speed 48 mph    
Visibility 4 miles    
Events Snow    
T = Trace of Precipitation, MM = Missing Value Source: NWS Daily Summary

Daily Weather History Graph

Daily Weather History Graph

Search for Another Location

Airport or City:

Trip Planner

Search our weather history database for the weather conditions in past years. The results will help you decide how hot, cold, wet, or windy it might be!

Date:

Astronomy

Mar. 30, 2014 Rise Set
Actual Time 6:51 AM MDT 7:26 PM MDT
Civil Twilight 6:24 AM MDT 7:53 PM MDT
Nautical Twilight 5:53 AM MDT 8:25 PM MDT
Astronomical Twilight 5:20 AM MDT 8:58 PM MDT
Moon 6:39 AM MDT (3/30) 7:42 PM MDT (3/30)
Length of Visible Light 13h 28m
Length of Day
12h 34m
Waning Crescent, 0% of the Moon is Illuminated
Mar 30
Waning Crescent
Mar 30
New
Apr 7
First Quarter
Apr 15
Full
Apr 22
Last Quarter

Hourly Weather History & Observations

Time (MDT) Temp. Windchill Dew Point Humidity Pressure Visibility Wind Dir Wind Speed Gust Speed Precip Events Conditions
12:16 AM 30.2 °F 18.9 °F 3.2 °F 32% 30.17 in 7.0 mi WSW 16.1 mph 28.8 mph N/A   Clear
12:36 AM 30.2 °F 17.4 °F 6.8 °F 37% 30.16 in 2.5 mi WSW 20.7 mph 29.9 mph N/A   Haze
12:56 AM 30.2 °F 18.1 °F 8.6 °F 40% 30.16 in 2.5 mi SW 18.4 mph 32.2 mph N/A Snow Light Snow
1:16 AM 30.2 °F 17.8 °F 8.6 °F 40% 30.15 in 2.0 mi SW 19.6 mph 28.8 mph N/A Snow Light Snow
1:36 AM 30.2 °F 17.8 °F 8.6 °F 40% 30.14 in 4.0 mi WSW 19.6 mph 29.9 mph N/A Snow Light Snow
1:56 AM 30.2 °F 16.5 °F 8.6 °F 40% 30.13 in 1.2 mi WSW 24.2 mph 36.8 mph N/A Snow Light Snow
2:16 AM 30.2 °F 18.1 °F 8.6 °F 40% 30.12 in 1.2 mi WSW 18.4 mph 35.7 mph N/A Snow Light Snow
2:36 AM 30.2 °F 16.2 °F 8.6 °F 40% 30.11 in 2.0 mi WSW 25.3 mph 31.1 mph N/A Snow Light Snow
2:56 AM 30.2 °F 17.4 °F 8.6 °F 40% 30.11 in 5.0 mi WSW 20.7 mph 29.9 mph N/A   Haze
3:16 AM 32.0 °F 21.2 °F 8.6 °F 38% 30.10 in 4.0 mi SW 16.1 mph 26.5 mph N/A   Haze
3:36 AM 32.0 °F 19.8 °F 10.4 °F 41% 30.09 in 2.5 mi SW 20.7 mph 34.5 mph N/A Snow Light Snow
3:56 AM 32.0 °F 20.5 °F 8.6 °F 38% 30.08 in 5.0 mi WSW 18.4 mph 27.6 mph N/A   Haze
4:16 AM 30.2 °F 17.8 °F 8.6 °F 40% 30.08 in 10.0 mi WSW 19.6 mph 24.2 mph N/A   Clear
4:36 AM 30.2 °F 18.1 °F 8.6 °F 40% 30.08 in 7.0 mi WSW 18.4 mph 26.5 mph N/A   Clear
4:56 AM 30.2 °F 17.1 °F 8.6 °F 40% 30.07 in 10.0 mi WSW 21.9 mph 26.5 mph N/A   Clear
5:15 AM 32.0 °F 20.5 °F 10.4 °F 41% 30.07 in 10.0 mi SW 18.4 mph 23.0 mph N/A   Clear
5:36 AM 32.0 °F 19.8 °F 8.6 °F 38% 30.06 in 7.0 mi SW 20.7 mph 34.5 mph N/A   Clear
5:56 AM 32.0 °F 20.1 °F 10.4 °F 41% 30.06 in 2.5 mi SSW 19.6 mph 29.9 mph N/A   Haze
6:16 AM 32.0 °F 20.5 °F 8.6 °F 38% 30.06 in 1.5 mi SSW 18.4 mph 32.2 mph N/A Snow Light Snow
6:36 AM 32.0 °F 21.2 °F 8.6 °F 38% 30.05 in 2.0 mi SW 16.1 mph 31.1 mph N/A Snow Light Snow
6:56 AM 32.0 °F 20.5 °F 8.6 °F 38% 30.05 in 4.0 mi SW 18.4 mph 27.6 mph N/A   Haze
7:16 AM 32.0 °F 19.8 °F 10.4 °F 41% 30.06 in 5.0 mi SW 20.7 mph 27.6 mph N/A   Haze
7:36 AM 32.0 °F 22.1 °F 8.6 °F 38% 30.06 in 7.0 mi SSW 13.8 mph 23.0 mph N/A   Clear
7:56 AM 32.0 °F 22.1 °F 8.6 °F 38% 30.05 in 10.0 mi SW 13.8 mph 23.0 mph N/A   Clear
8:16 AM 33.8 °F 24.8 °F 10.4 °F 38% 30.05 in 7.0 mi SSW 12.7 mph 26.5 mph N/A   Clear
8:36 AM 33.8 °F 24.8 °F 10.4 °F 38% 30.05 in 7.0 mi SSW 12.7 mph 26.5 mph N/A   Clear
8:56 AM 33.8 °F 23.9 °F 10.4 °F 38% 30.05 in 10.0 mi SSW 15.0 mph 21.9 mph N/A   Clear
9:16 AM 33.8 °F 24.8 °F 10.4 °F 38% 30.04 in 10.0 mi SSW 12.7 mph 24.2 mph N/A   Clear
9:36 AM 33.8 °F 21.9 °F 8.6 °F 35% 30.04 in 7.0 mi South 21.9 mph 26.5 mph N/A   Clear
9:56 AM 33.8 °F 22.8 °F 6.8 °F 32% 30.04 in 7.0 mi SSW 18.4 mph 32.2 mph N/A   Clear
10:16 AM 35.6 °F 26.2 °F 8.6 °F 33% 30.03 in 10.0 mi WSW 15.0 mph 24.2 mph 0.01 in   Clear
10:36 AM 33.8 °F 22.2 °F 8.6 °F 35% 30.05 in 10.0 mi South 20.7 mph 26.5 mph 0.01 in   Mostly Cloudy
10:56 AM 33.8 °F 20.3 °F 10.4 °F 38% 30.05 in 4.0 mi South 28.8 mph 39.1 mph N/A   Haze
11:16 AM 33.8 °F 21.0 °F 14.0 °F 44% 30.04 in 1.2 mi South 25.3 mph 36.8 mph N/A Snow Light Snow
11:36 AM 33.8 °F 21.9 °F 14.0 °F 44% 30.03 in 2.0 mi South 21.9 mph 35.7 mph N/A   Haze
11:56 AM 33.8 °F 24.3 °F 12.2 °F 41% 30.01 in 10.0 mi SSW 13.8 mph 25.3 mph N/A   Scattered Clouds
12:16 PM 33.8 °F 21.3 °F 12.2 °F 41% 30.01 in 7.0 mi South 24.2 mph 34.5 mph N/A   Scattered Clouds
12:36 PM 33.8 °F 20.1 °F 12.2 °F 41% 30.00 in 7.0 mi South 29.9 mph 38.0 mph N/A   Scattered Clouds
12:56 PM 33.8 °F 23.2 °F 12.2 °F 41% 29.98 in 1.0 mi SSW 17.3 mph 36.8 mph N/A Snow Light Snow
1:16 PM 33.8 °F 20.5 °F 12.2 °F 41% 29.97 in 1.2 mi South 27.6 mph 38.0 mph N/A Snow Light Snow
1:36 PM 33.8 °F 21.3 °F 10.4 °F 38% 29.95 in 2.5 mi South 24.2 mph 33.4 mph N/A   Haze
1:56 PM 33.8 °F 21.9 °F 8.6 °F 35% 29.93 in 4.0 mi South 21.9 mph 28.8 mph N/A   Haze
2:16 PM 33.8 °F 21.3 °F 10.4 °F 38% 29.91 in 4.0 mi SSE 24.2 mph 39.1 mph N/A   Haze
2:36 PM 33.8 °F 21.3 °F 14.0 °F 44% 29.90 in 2.5 mi SSE 24.2 mph 39.1 mph N/A   Haze
2:56 PM 33.8 °F 20.3 °F 14.0 °F 44% 29.89 in 0.8 mi SSE 28.8 mph 38.0 mph N/A Snow Light Snow
3:16 PM 33.8 °F 20.3 °F 17.6 °F 52% 29.89 in 0.2 mi South 28.8 mph 48.3 mph N/A Snow Snow
3:36 PM 33.8 °F 21.9 °F 17.6 °F 52% 29.88 in 1.5 mi South 21.9 mph 36.8 mph N/A Snow Light Snow
3:56 PM 32.0 °F 19.2 °F 17.6 °F 55% 29.87 in 5.0 mi South 23.0 mph 33.4 mph N/A   Haze
4:16 PM 30.2 °F 18.1 °F 17.6 °F 60% 29.84 in 3.0 mi South 18.4 mph 33.4 mph N/A Snow Light Snow
4:36 PM 30.2 °F 15.7 °F 19.4 °F 64% 29.82 in 1.0 mi SSE 27.6 mph 36.8 mph N/A Snow Light Snow
4:56 PM 30.2 °F 17.1 °F 21.2 °F 69% 29.84 in 0.8 mi South 21.9 mph 27.6 mph N/A Snow Light Snow
5:16 PM 32.0 °F 21.6 °F 19.4 °F 60% 29.80 in 10.0 mi SSE 15.0 mph 24.2 mph N/A   Scattered Clouds
5:36 PM 33.8 °F 20.8 °F 15.8 °F 48% 29.76 in 2.5 mi SSE 26.5 mph 35.7 mph N/A Snow Light Snow
5:56 PM 32.0 °F 18.1 °F 14.0 °F 48% 29.75 in 0.5 mi SSE 27.6 mph 43.7 mph N/A Snow Light Snow
6:16 PM 32.0 °F 16.5 °F 12.2 °F 44% 29.72 in 1.2 mi SSE 35.7 mph 47.2 mph N/A Snow Light Snow
6:36 PM 32.0 °F 18.6 °F 15.8 °F 51% 29.75 in 1.0 mi South 25.3 mph 38.0 mph N/A Snow Light Snow
6:56 PM 28.4 °F 13.5 °F 19.4 °F 69% 29.76 in 0.2 mi South 26.5 mph 41.4 mph N/A Snow Heavy Snow
7:16 PM 26.6 °F 12.7 °F 21.2 °F 80% 29.73 in 0.2 mi SSE 20.7 mph 31.1 mph N/A Snow Heavy Snow
7:36 PM 26.6 °F 12.4 °F 21.2 °F 80% 29.72 in 0.5 mi South 21.9 mph 32.2 mph N/A Snow Light Snow
7:56 PM 26.6 °F 12.0 °F 21.2 °F 80% 29.71 in 0.2 mi South 23.0 mph 31.1 mph N/A Snow Light Snow
8:16 PM 26.6 °F 10.6 °F 21.2 °F 80% 29.71 in 0.2 mi South 28.8 mph 43.7 mph N/A Snow Heavy Snow
8:36 PM 26.6 °F 12.0 °F 19.4 °F 74% 29.72 in 0.2 mi South 23.0 mph 36.8 mph N/A Snow Heavy Snow
8:56 PM 26.6 °F - 19.4 °F 74% 29.74 in 0.2 mi North - - N/A Snow Heavy Snow
9:16 PM 24.8 °F - 19.4 °F 80% 29.75 in 0.2 mi North - - N/A Snow Heavy Snow
9:36 PM 23.0 °F 6.9 °F 15.8 °F 74% 29.77 in 0.2 mi WSW 24.2 mph 47.2 mph N/A Snow Heavy Snow
9:56 PM 23.0 °F 5.7 °F 14.0 °F 68% 29.77 in 0.5 mi WSW 28.8 mph 40.3 mph N/A Snow Light Snow
10:16 PM 21.2 °F 6.0 °F 14.0 °F 74% 29.77 in 0.2 mi SSW 19.6 mph 42.6 mph N/A Snow Heavy Snow
10:36 PM 21.2 °F 7.3 °F 14.0 °F 74% 29.76 in 0.2 mi SSW 16.1 mph 32.2 mph N/A Snow Snow
10:56 PM 21.2 °F 4.2 °F 14.0 °F 74% 29.74 in 0.2 mi SW 25.3 mph 36.8 mph N/A Snow Heavy Snow
11:16 PM 21.2 °F 4.2 °F 14.0 °F 74% 29.73 in 0.2 mi WSW 25.3 mph 38.0 mph N/A Snow Heavy Snow
11:36 PM 19.4 °F 2.5 °F 12.2 °F 74% 29.73 in 0.2 mi SW 23.0 mph 29.9 mph N/A Snow Snow
11:56 PM 19.4 °F 1.4 °F 14.0 °F 80% 29.75 in 0.2 mi WSW 26.5 mph 40.3 mph N/A Snow Heavy Snow